| time (UTC) | temp C | wind direction | speed KPH | gust KPH | rain 1hr cm | rain 24hr cm | rain mn cm | humidity % | barometer mb |
| 20260903110416 | 18 | 183 | 0.0 | 0.0 | 0.03 | 0.03 | 0.03 | 84 | 1019.6 |
| 20260903105414 | 18 | 183 | 0.0 | 0.0 | 0.03 | 0.00 | 0.03 | 84 | 1019.7 |
| 20260903104418 | 18 | 183 | 0.0 | 0.0 | 0.03 | 0.00 | 0.03 | 80 | 1019.8 |
| 20260903103414 | 18 | 183 | 0.0 | 1.6 | 0.00 | 0.00 | 0.00 | 79 | 1019.7 |
| 20260903102414 | 18 | 183 | 0.0 | 4.8 | 0.00 | 0.00 | 0.00 | 76 | 1019.5 |
| 20260903101413 | 18 | 183 | 1.6 | 14.5 | 0.00 | 0.00 | 0.00 | 73 | 1019.9 |
| 20260903100413 | 18 | 202 | 0.0 | 4.8 | 0.00 | 0.00 | 0.00 | 74 | 1019.9 |
| 20260903095423 | 18 | 207 | 0.0 | 6.4 | 0.00 | 0.00 | 0.00 | 73 | 1019.9 |
| 20260903094412 | 18 | 201 | 0.0 | 8.0 | 0.00 | 0.00 | 0.00 | 73 | 1020.1 |
| 20260903093413 | 18 | 169 | 0.0 | 8.0 | 0.00 | 0.00 | 0.00 | 73 | 1019.8 |
| 20260903091412 | 18 | 195 | 0.0 | 4.8 | 0.00 | 0.00 | 0.00 | 73 | 1019.9 |
| 20260903090419 | 18 | 196 | 1.6 | 6.4 | 0.00 | 0.00 | 0.00 | 73 | 1019.9 |
| 20260903083412 | 18 | 188 | 1.6 | 9.7 | 0.00 | 0.00 | 0.00 | 74 | 1020.2 |
| 20260903075411 | 17 | 192 | 1.6 | 8.0 | 0.00 | 0.00 | 0.00 | 78 | 1020.3 |
| 20260903074408 | 16 | 217 | 0.0 | 8.0 | 0.00 | 0.00 | 0.00 | 80 | 1020.3 |
| 20260903073410 | 16 | 217 | 1.6 | 4.8 | 0.00 | 0.00 | 0.00 | 81 | 1019.9 |
| 20260903072411 | 16 | 236 | 0.0 | 4.8 | 0.00 | 0.00 | 0.00 | 83 | 1020.2 |
| 20260903071419 | 15 | 238 | 1.6 | 8.0 | 0.00 | 0.00 | 0.00 | 84 | 1020.3 |
| 20260903070411 | 15 | 174 | 1.6 | 9.7 | 0.00 | 0.00 | 0.00 | 91 | 1020.5 |
| 20260903065411 | 13 | 288 | 0.0 | 3.2 | 0.00 | 0.00 | 0.00 | 94 | 1020.3 |
| 20260903064412 | 13 | 288 | 0.0 | 1.6 | 0.00 | 0.00 | 0.00 | 94 | 1020.3 |
| 20260903062406 | 12 | 288 | 0.0 | 0.0 | 0.00 | 0.00 | 0.00 | 94 | 1020.1 |
| 20260903061409 | 12 | 288 | 0.0 | 0.0 | 0.00 | 0.00 | 0.00 | 94 | 1020.3 |
| 20260903060419 | 11 | 288 | 0.0 | 0.0 | 0.00 | 0.00 | 0.00 | 94 | 1020.5 |
| 20260903055416 | 11 | 288 | 0.0 | 0.0 | 0.00 | 0.00 | 0.00 | 94 | 1020.6 |
| 20260903054407 | 11 | 288 | 0.0 | 0.0 | 0.00 | 0.00 | 0.00 | 94 | 1020.9 |
| 20260903053408 | 11 | 288 | 0.0 | 0.0 | 0.00 | 0.00 | 0.00 | 94 | 1020.8 |
| 20260903052410 | 11 | 288 | 0.0 | 0.0 | 0.00 | 0.00 | 0.00 | 94 | 1020.6 |
| 20260903051414 | 10 | 288 | 0.0 | 3.2 | 0.00 | 0.00 | 0.00 | 94 | 1020.4 |
| 20260903050410 | 10 | 288 | 0.0 | 0.0 | 0.00 | 0.00 | 0.00 | 94 | 1020.3 |
| 20260903045411 | 10 | 288 | 0.0 | 0.0 | 0.00 | 0.00 | 0.00 | 94 | 1020.5 |
| 20260903044410 | 10 | 288 | 0.0 | 0.0 | 0.00 | 0.00 | 0.00 | 94 | 1020.7 |
| 20260903043419 | 10 | 288 | 0.0 | 0.0 | 0.00 | 0.00 | 0.00 | 94 | 1021.0 |
| 20260903042409 | 10 | 288 | 0.0 | 0.0 | 0.00 | 0.00 | 0.00 | 94 | 1021.2 |
| 20260903041411 | 10 | 288 | 0.0 | 0.0 | 0.00 | 0.00 | 0.00 | 94 | 1020.8 |
| 20260903040408 | 10 | 288 | 0.0 | 0.0 | 0.00 | 0.00 | 0.00 | 94 | 1020.8 |
| 20260903035411 | 10 | 288 | 0.0 | 0.0 | 0.00 | 0.00 | 0.00 | 94 | 1020.8 |
| 20260903034415 | 10 | 288 | 0.0 | 0.0 | 0.00 | 0.00 | 0.00 | 94 | 1020.9 |
| 20260903033409 | 9 | 288 | 0.0 | 0.0 | 0.00 | 0.00 | 0.00 | 94 | 1020.9 |
| 20260903032410 | 9 | 288 | 0.0 | 0.0 | 0.00 | 0.00 | 0.00 | 94 | 1020.8 |
| 20260903031411 | 9 | 288 | 0.0 | 0.0 | 0.00 | 0.00 | 0.00 | 94 | 1020.9 |
| 20260903030432 | 9 | 288 | 0.0 | 0.0 | 0.00 | 0.00 | 0.00 | 94 | 1020.9 |
| 20260903025407 | 10 | 288 | 0.0 | 0.0 | 0.00 | 0.00 | 0.00 | 94 | 1021.2 |
| 20260903024407 | 10 | 288 | 0.0 | 0.0 | 0.00 | 0.03 | 0.00 | 94 | 1021.1 |
| 20260903021412 | 10 | 288 | 0.0 | 0.0 | 0.00 | 0.03 | 0.00 | 94 | 1021.3 |
| 20260903020405 | 10 | 288 | 0.0 | 0.0 | 0.00 | 0.03 | 0.00 | 94 | 1021.3 |
| 20260903015405 | 10 | 288 | 0.0 | 0.0 | 0.00 | 0.03 | 0.00 | 94 | 1021.4 |
| 20260903014404 | 10 | 288 | 0.0 | 0.0 | 0.00 | 0.03 | 0.00 | 94 | 1021.5 |
| 20260903013406 | 10 | 288 | 0.0 | 0.0 | 0.00 | 0.03 | 0.00 | 94 | 1021.5 |
| 20260903012403 | 10 | 288 | 0.0 | 0.0 | 0.00 | 0.03 | 0.00 | 94 | 1021.6 |
| 20260903011405 | 10 | 288 | 0.0 | 0.0 | 0.00 | 0.03 | 0.00 | 94 | 1021.6 |
| 20260903005412 | 10 | 288 | 0.0 | 0.0 | 0.00 | 0.03 | 0.00 | 94 | 1021.5 |
| 20260903004404 | 10 | 288 | 0.0 | 0.0 | 0.00 | 0.03 | 0.00 | 94 | 1021.6 |
| 20260903003403 | 10 | 288 | 0.0 | 0.0 | 0.00 | 0.03 | 0.00 | 93 | 1021.6 |
| 20260903002402 | 11 | 288 | 0.0 | 0.0 | 0.00 | 0.03 | 0.00 | 93 | 1021.6 |
| 20260903001418 | 11 | 288 | 0.0 | 0.0 | 0.00 | 0.03 | 0.00 | 93 | 1021.5 |
| 20260903000407 | 11 | 288 | 0.0 | 0.0 | 0.00 | 0.03 | 0.00 | 93 | 1021.8 |
| 20260902235403 | 11 | 288 | 0.0 | 0.0 | 0.00 | 0.03 | 0.00 | 93 | 1021.7 |
| 20260902233401 | 11 | 288 | 0.0 | 0.0 | 0.00 | 0.03 | 0.00 | 93 | 1021.7 |
| 20260902231402 | 11 | 288 | 0.0 | 0.0 | 0.00 | 0.03 | 0.00 | 92 | 1022.0 |
| 20260902230402 | 12 | 288 | 0.0 | 0.0 | 0.00 | 0.03 | 0.00 | 92 | 1022.0 |
| 20260902225401 | 12 | 288 | 0.0 | 0.0 | 0.00 | 0.03 | 0.00 | 92 | 1021.9 |
| 20260902224408 | 12 | 288 | 0.0 | 0.0 | 0.00 | 0.03 | 0.00 | 92 | 1021.8 |
| 20260902222359 | 12 | 288 | 0.0 | 0.0 | 0.00 | 0.03 | 0.00 | 91 | 1022.0 |
| 20260902221402 | 12 | 288 | 0.0 | 0.0 | 0.00 | 0.03 | 0.00 | 91 | 1021.9 |
| 20260902215401 | 12 | 288 | 0.0 | 0.0 | 0.00 | 0.03 | 0.03 | 91 | 1022.0 |
| 20260902212409 | 13 | 288 | 0.0 | 0.0 | 0.00 | 0.03 | 0.03 | 90 | 1021.8 |
| 20260902211359 | 13 | 288 | 0.0 | 0.0 | 0.00 | 0.03 | 0.03 | 89 | 1021.8 |
| 20260902205358 | 13 | 288 | 0.0 | 0.0 | 0.00 | 0.03 | 0.03 | 88 | 1021.7 |
| 20260902204358 | 13 | 288 | 0.0 | 0.0 | 0.00 | 0.03 | 0.03 | 87 | 1021.8 |
| 20260902202357 | 13 | 288 | 0.0 | 0.0 | 0.00 | 0.03 | 0.03 | 87 | 1021.9 |
| 20260902195359 | 13 | 288 | 0.0 | 0.0 | 0.00 | 0.03 | 0.03 | 85 | 1021.8 |
| 20260902194355 | 13 | 288 | 0.0 | 0.0 | 0.00 | 0.03 | 0.03 | 85 | 1021.9 |
| 20260902193354 | 14 | 288 | 0.0 | 0.0 | 0.00 | 0.03 | 0.03 | 84 | 1021.9 |
| 20260902192403 | 14 | 288 | 0.0 | 0.0 | 0.00 | 0.03 | 0.03 | 83 | 1021.8 |
| 20260902191358 | 15 | 288 | 0.0 | 0.0 | 0.00 | 0.03 | 0.03 | 81 | 1021.7 |
| 20260902190358 | 15 | 288 | 0.0 | 0.0 | 0.00 | 0.03 | 0.03 | 80 | 1021.6 |
| 20260902185356 | 15 | 288 | 0.0 | 0.0 | 0.00 | 0.03 | 0.03 | 79 | 1021.6 |
| 20260902183355 | 16 | 288 | 0.0 | 1.6 | 0.00 | 0.03 | 0.03 | 77 | 1021.3 |
| 20260902182354 | 17 | 288 | 0.0 | 0.0 | 0.00 | 0.03 | 0.03 | 74 | 1021.3 |
| 20260902181411 | 17 | 288 | 0.0 | 0.0 | 0.00 | 0.03 | 0.03 | 68 | 1021.2 |
| 20260902180407 | 18 | 288 | 0.0 | 4.8 | 0.00 | 0.03 | 0.03 | 65 | 1021.1 |
| 20260902175355 | 18 | 288 | 3.2 | 8.0 | 0.00 | 0.03 | 0.03 | 64 | 1021.0 |
| 20260902174359 | 18 | 293 | 3.2 | 8.0 | 0.00 | 0.03 | 0.03 | 63 | 1021.0 |
| 20260902173356 | 18 | 298 | 0.0 | 11.3 | 0.00 | 0.03 | 0.03 | 62 | 1020.9 |
| 20260902172354 | 19 | 297 | 3.2 | 8.0 | 0.00 | 0.03 | 0.03 | 60 | 1021.0 |
| 20260902171402 | 20 | 260 | 3.2 | 12.9 | 0.00 | 0.03 | 0.03 | 59 | 1020.9 |
| 20260902170350 | 20 | 298 | 0.0 | 6.4 | 0.00 | 0.03 | 0.03 | 60 | 1021.0 |
| 20260902165350 | 20 | 295 | 0.0 | 6.4 | 0.00 | 0.03 | 0.03 | 62 | 1020.9 |
| 20260902164348 | 19 | 295 | 1.6 | 6.4 | 0.00 | 0.03 | 0.03 | 61 | 1020.8 |
| 20260902163351 | 19 | 296 | 3.2 | 6.4 | 0.00 | 0.03 | 0.03 | 60 | 1020.9 |
| 20260902162353 | 20 | 299 | 0.0 | 4.8 | 0.00 | 0.03 | 0.03 | 61 | 1020.9 |
| 20260902160353 | 20 | 304 | 4.8 | 12.9 | 0.00 | 0.03 | 0.03 | 59 | 1020.8 |
| 20260902155352 | 20 | 298 | 4.8 | 9.7 | 0.00 | 0.03 | 0.03 | 58 | 1021.0 |
| 20260902154351 | 20 | 292 | 0.0 | 12.9 | 0.00 | 0.03 | 0.03 | 60 | 1021.0 |
| 20260902153353 | 20 | 291 | 6.4 | 14.5 | 0.00 | 0.03 | 0.03 | 59 | 1021.0 |
| 20260902152400 | 20 | 275 | 4.8 | 11.3 | 0.00 | 0.03 | 0.03 | 59 | 1021.1 |
| 20260902151352 | 20 | 250 | 4.8 | 8.0 | 0.00 | 0.03 | 0.03 | 52 | 1021.2 |
| 20260902145350 | 20 | 306 | 3.2 | 11.3 | 0.00 | 0.03 | 0.03 | 59 | 1021.3 |
| 20260902144350 | 20 | 313 | 4.8 | 16.1 | 0.00 | 0.03 | 0.03 | 59 | 1021.3 |
| 20260902143356 | 20 | 251 | 4.8 | 12.9 | 0.00 | 0.03 | 0.03 | 60 | 1021.4 |
| 20260902142349 | 20 | 294 | 6.4 | 16.1 | 0.00 | 0.03 | 0.03 | 59 | 1021.3 |
| 20260902141350 | 20 | 262 | 8.0 | 14.5 | 0.00 | 0.03 | 0.03 | 60 | 1021.3 |
| 20260902135348 | 20 | 290 | 6.4 | 16.1 | 0.00 | 0.03 | 0.03 | 60 | 1021.2 |
| 20260902134355 | 20 | 248 | 8.0 | 20.9 | 0.00 | 0.03 | 0.03 | 59 | 1021.1 |
| 20260902133348 | 20 | 262 | 11.3 | 17.7 | 0.00 | 0.03 | 0.03 | 57 | 1021.2 |
| 20260902132346 | 21 | 307 | 3.2 | 19.3 | 0.00 | 0.03 | 0.03 | 50 | 1021.1 |
| 20260902131348 | 21 | 190 | 6.4 | 17.7 | 0.00 | 0.03 | 0.03 | 52 | 1021.0 |
| 20260902125359 | 21 | 253 | 6.4 | 19.3 | 0.00 | 0.03 | 0.03 | 55 | 1021.1 |
| 20260902124347 | 21 | 273 | 4.8 | 24.1 | 0.00 | 0.03 | 0.03 | 56 | 1021.0 |
| 20260902123345 | 21 | 294 | 6.4 | 17.7 | 0.00 | 0.03 | 0.03 | 59 | 1020.9 |
| 20260902115355 | 20 | 265 | 8.0 | 17.7 | 0.00 | 0.03 | 0.03 | 63 | 1021.2 |
| 20260902114350 | 20 | 261 | 8.0 | 19.3 | 0.00 | 0.03 | 0.03 | 64 | 1021.1 |
| 20260902113346 | 20 | 284 | 4.8 | 17.7 | 0.00 | 0.03 | 0.03 | 65 | 1021.2 |
| 20260902112346 | 20 | 160 | 4.8 | 17.7 | 0.00 | 0.03 | 0.03 | 63 | 1021.1 |
| 20260902111346 | 20 | 284 | 6.4 | 17.7 | 0.00 | 0.03 | 0.03 | 64 | 1021.3 |